Temperature
16 16 16 16 16 16 16 15 15 15 15 15 15 15 15 15 15 15 15 15 15 15 15 15 15 15 15 15 15 15 15 15 15 15 15 14 14 14 14 14 13 13 13
16 16 16 15 16 15 15 15 15 15 15 15 15 15 15 15 15 15 15 15 15 15 15 15 15 14 14 15 15 15 15 15 15 14 14 14 14 14 14 14 13 13 13
16 15 15 15 15 15 15 15 15 15 15 15 15 15 15 15 14 14 14 14 14 14 14 14 14 14 14 14 14 14 14 14 14 14 14 13 13 13 13 13 13 13 13
15 15 15 15 15 15 15 15 15 15 15 15 15 14 14 14 14 14 14 14 14 14 14 14 14 14 14 14 14 14 14 14 14 14 13 13 13 13 13 13 13 13 13
15 15 15 15 15 15 15 15 15 15 14 14 14 14 14 14 14 14 14 14 14 14 14 14 14 14 14 14 14 14 14 14 14 13 13 13 13 13 13 13 13 13 13
15 15 15 15 15 15 14 14 14 14 14 14 14 14 14 14 14 14 14 14 14 14 14 14 14 14 14 14 14 14 14 14 13 13 13 12 13 13 13 13 13 13 13
14 14 14 15 15 14 14 14 14 14 14 14 14 14 14 14 14 14 14 14 14 13 13 14 14 14 13 13 13 13 13 13 13 13 13 12 13 13 13 12 13 13 13
14 14 14 14 14 14 14 14 14 14 14 14 14 14 14 14 14 14 14 14 13 13 13 13 13 13 13 13 13 13 13 13 13 12 12 12 13 12 12 12 12 12 12
14 14 14 14 14 14 14 14 14 14 14 14 14 14 14 14 14 14 14 13 13 13 13 13 13 13 13 13 13 13 13 13 12 12 12 12 12 12 12 12 12 12 12
13 13 14 14 14 14 14 14 14 14 14 14 13 14 14 13 13 13 13 13 13 13 13 13 13 13 13 13 13 13 13 13 12 12 12 12 12 12 12 12 12 12 12
13 13 13 13 13 13 14 14 14 13 13 13 13 13 13 13 13 13 13 13 13 13 13 13 13 13 13 13 13 13 13 12 12 12 12 12 12 12 12 12 11 11 11
13 13 13 13 13 13 13 13 13 13 13 13 13 13 13 13 12 12 12 12 12 12 12 12 12 12 12 12 12 12 12 12 11 12 12 12 12 12 11 11 11 11 11
12 13 13 13 13 13 13 13 13 13 13 13 13 13 12 12 12 12 12 12 12 12 12 12 12 12 12 12 12 12 12 12 11 11 11 12 12 11 11 11 11 11 11
12 12 12 12 12 12 12 12 12 12 12 12 12 12 12 12 12 12 12 12 12 12 12 12 12 12 12 12 12 12 11 11 11 11 11 12 12 11 11 11 11 11 11
12 12 12 12 12 12 12 12 12 12 12 12 12 12 12 12 12 12 12 11 11 11 11 11 11 11 11 11 11 11 11 11 11 11 11 11 11 11 11 11 11 10 10
12 12 12 12 12 12 12 12 12 12 12 12 12 12 12 12 12 12 11 11 11 11 11 11 11 11 11 11 11 11 11 11 11 11 11 11 11 11 11 11 10 10 10
11 11 11 11 11 11 11 11 11 11 11 11 11 11 11 11 11 11 11 11 11 11 11 11 11 11 11 11 11 11 11 11 11 11 11 11 11 11 11 11 10 10 10
10 11 11 11 11 11 11 11 11 11 11 11 11 11 11 11 11 11 11 11 11 11 10 10 10 10 10 10 10 10 10 11 11 11 11 11 11 10 11 11 10 10 10
10 10 11 11 11 11 11 11 10 10 10 10 11 11 11 11 11 10 10 10 10 10 10 10 10 10 10 10 10 10 10 10 10 10 10 10 10 10 10 10 10 10 10
10 10 10 10 10 10 10 10 10 10 10 10 10 10 10 10 10 10 10 10 10 10 10 10 10 10 10 10 10 10 10 10 10 10 10 10 10 10 10 10 10 10 10
9 9 10 10 10 10 10 10 10 10 10 10 10 10 10 10 10 10 10 10 10 10 10 10 9 9 9 9 9 9 9 10 10 10 10 10 10 10 9 9 9 9 9
9 9 10 10 9 10 10 10 10 10 9 9 9 9 9 9 9 9 9 9 9 9 9 9 9 9 9 9 8 8 8 9 9 9 10 9 9 9 9 9 9 9 9
8 9 9 9 9 9 9 9 9 9 9 9 9 9 9 9 9 9 9 9 9 9 9 9 9 9 9 9 8 8 8 9 9 9 9 9 9 9 9 9 8 8 8
8 8 8 9 9 9 9 9 9 9 9 9 9 9 9 9 9 9 9 9 9 9 9 9 8 8 9 8 8 8 8 8 8 8 8 9 8 8 8 8 8 8 8
7 7 8 8 8 8 8 8 8 8 8 8 9 8 8 8 8 8 8 8 8 8 8 8 8 8 8 8 8 8 8 8 8 8 7 8 8 8 8 8 8 7 7
7 7 7 8 8 8 8 8 8 8 8 8 8 8 8 8 8 8 8 8 8 8 8 8 8 8 8 8 8 7 7 8 8 8 7 7 7 7 7 7 7 7 7
Wind_Speed
6 9 11 11 11 11 11 12 13 12 12 12 13 13 12 12 12 12 12 12 11 11 11 11 12 12 13 13 13 13 13 13 13 13 13 13 13 13 12 11 9 12 13
7 10 12 11 11 11 11 12 13 13 13 13 12 13 12 12 12 12 11 11 11 11 11 11 11 11 12 12 12 12 12 12 12 11 10 11 12 12 13 12 11 11 12
8 10 12 11 11 11 11 11 12 13 13 13 13 12 12 12 12 11 11 11 10 10 10 11 11 11 11 11 12 11 11 11 10 9 8 9 11 12 12 12 12 12 12
8 10 11 12 11 11 11 11 11 12 12 12 13 12 11 11 11 11 11 10 10 10 10 10 11 11 11 11 11 11 10 10 9 6 7 9 9 11 11 11 11 11 11
8 9 10 11 11 11 11 11 11 11 11 12 12 12 11 11 11 10 10 10 9 10 10 10 10 10 11 10 10 10 10 9 7 6 8 8 9 10 10 10 10 10 10
7 8 10 10 11 11 11 11 11 10 11 11 11 11 10 10 10 10 10 9 9 10 10 9 10 10 10 10 9 9 9 7 5 7 7 7 8 9 9 8 9 9 9
7 7 10 10 11 11 10 10 10 11 11 10 10 10 10 9 10 10 10 9 9 9 9 9 10 10 9 9 8 8 8 5 5 6 6 7 8 8 7 7 7 8 8
6 6 9 10 10 11 11 10 10 11 11 11 10 10 10 9 10 10 9 9 9 9 9 9 9 9 8 8 8 7 7 4 5 6 6 7 7 7 7 6 6 6 6
5 5 7 9 9 11 11 10 10 10 10 11 10 9 9 9 9 9 9 9 9 9 9 9 9 8 8 7 7 7 6 3 4 5 5 6 6 5 5 5 5 5 5
5 5 5 7 8 10 10 10 10 10 10 10 10 10 9 9 9 9 9 9 8 8 8 8 8 8 8 7 7 6 5 2 4 4 4 6 5 5 5 5 4 4 4
4 5 5 6 7 9 10 10 10 10 10 10 10 10 10 9 9 8 8 8 8 8 8 8 8 7 7 7 6 6 4 2 3 3 4 5 4 4 4 4 4 4 4
6 6 5 6 6 8 8 9 9 9 10 9 9 10 8 7 7 7 9 8 8 7 7 7 7 7 5 5 5 5 3 2 2 2 4 4 3 3 3 4 4 4 4
7 7 6 6 6 7 6 7 7 7 8 9 9 9 8 7 7 6 7 7 7 7 6 7 6 5 4 3 3 3 2 2 2 2 3 3 2 2 3 3 3 3 3
7 7 7 6 6 7 7 6 7 6 6 7 8 9 8 6 6 6 5 6 6 5 5 5 4 4 4 4 3 3 3 2 2 1 3 3 2 2 2 1 1 2 2
7 8 8 7 7 7 7 6 6 7 7 7 8 9 8 6 6 6 5 5 5 5 5 5 5 5 4 4 3 3 3 3 2 2 2 3 2 1 1 1 1 1 1
8 7 8 9 8 7 7 7 7 7 7 8 8 9 9 8 7 6 6 5 5 5 5 5 5 4 4 4 3 3 3 3 3 3 2 3 2 1 1 1 0 1 1
8 7 7 9 9 9 9 9 8 8 9 8 8 10 10 9 8 7 6 5 5 6 6 5 5 4 4 4 4 4 3 3 3 3 3 3 3 2 1 1 1 2 2
8 8 7 7 9 10 9 9 8 9 9 8 9 9 11 10 10 8 7 6 7 6 6 5 5 4 4 4 4 3 3 3 4 4 4 4 3 3 2 1 1 2 2
8 8 8 8 9 9 9 9 8 8 9 9 9 9 10 11 11 9 7 7 8 6 6 5 5 5 4 4 4 3 3 4 4 4 5 4 4 3 3 2 2 2 2
8 8 7 8 9 9 8 7 7 7 8 8 8 9 10 11 11 9 7 8 8 6 6 6 6 5 4 4 3 3 3 4 4 4 5 5 4 4 4 3 3 3 2
8 8 8 7 8 8 7 8 8 8 8 8 8 10 11 11 11 10 8 8 8 7 7 7 6 6 4 3 2 2 3 4 5 4 5 5 5 5 5 4 4 3 3
9 8 8 8 8 9 8 8 8 8 7 7 7 9 11 11 11 10 10 8 8 7 7 7 7 5 4 4 3 3 3 4 4 5 5 5 5 4 5 5 5 4 4
9 8 8 8 8 9 8 7 6 6 5 6 7 7 9 11 11 11 11 9 8 8 8 8 8 8 6 5 5 4 3 4 2 4 6 6 5 4 4 4 5 5 5
9 7 8 7 8 8 8 9 10 9 9 8 8 7 8 10 11 11 11 10 9 8 8 8 8 7 7 6 4 4 4 3 3 3 4 5 5 5 5 4 5 5 5
7 6 6 7 8 8 9 10 10 10 8 7 7 8 8 8 9 10 10 9 9 8 8 8 8 8 7 7 5 4 4 4 4 4 4 4 4 5 5 5 5 5 5
6 5 5 6 7 8 9 9 10 11 10 9 9 8 7 6 7 9 8 8 8 8 8 8 8 9 8 8 6 5 5 4 5 4 5 4 5 4 5 5 5 5 4
Wind_Direction
164 162 159 156 155 152 148 148 148 143 142 138 136 133 129 126 123 121 118 115 111 108 106 105 103 99 96 93 91 89 88 86 85 84 84 86 87 85 80 76 77 77 73
160 163 158 158 155 155 151 149 149 147 143 140 137 136 134 131 128 125 123 118 115 112 109 107 103 101 98 94 92 90 88 87 84 84 87 90 87 86 83 75 67 74 75
152 156 159 160 156 154 153 149 148 148 147 145 141 138 138 135 133 131 126 121 118 115 111 107 105 102 101 96 93 91 89 87 86 85 92 89 89 87 86 82 77 77 76
153 156 159 157 155 153 152 149 148 147 148 146 143 140 140 139 137 133 127 124 121 118 115 111 106 103 102 100 96 92 90 88 84 89 90 85 87 89 89 86 82 78 76
154 159 153 154 154 151 151 150 149 152 150 145 144 144 142 141 140 136 130 127 124 122 118 113 109 107 104 102 99 95 92 89 86 89 87 86 84 88 88 85 82 79 77
157 160 154 155 154 153 150 152 152 151 150 148 145 144 144 145 145 141 135 132 128 126 122 117 115 112 109 106 102 98 92 91 98 87 87 88 85 88 89 88 85 83 80
160 162 160 161 159 154 153 153 158 154 148 148 149 148 147 145 147 145 140 136 132 129 127 124 123 118 116 112 107 102 97 87 86 88 89 88 84 83 84 89 87 84 81
162 164 162 166 165 161 158 160 160 160 157 153 151 151 150 148 148 148 145 142 138 137 131 128 127 124 121 118 112 107 104 94 93 91 93 90 84 83 75 78 82 80 78
166 169 170 173 174 169 163 163 165 163 162 159 156 152 151 151 152 153 150 147 142 139 135 131 128 129 127 122 116 111 105 87 90 90 92 90 90 87 80 73 76 75 74
174 176 180 183 181 176 172 167 165 164 164 162 158 152 149 152 153 151 154 152 147 144 141 136 132 130 129 124 120 118 119 136 94 93 92 91 91 88 84 73 69 73 72
193 195 194 193 188 182 179 171 169 168 165 161 158 150 153 158 157 153 147 144 145 144 144 140 137 133 132 130 126 130 148 131 103 88 87 91 96 93 84 73 60 58 69
206 208 203 202 196 189 180 174 177 176 173 176 173 167 168 164 157 152 141 141 142 142 143 142 142 147 158 151 145 158 154 141 114 101 89 95 107 101 86 73 66 61 65
210 208 209 207 202 195 184 179 179 179 179 182 178 175 171 164 155 154 153 152 155 158 161 154 164 170 170 159 163 168 160 145 134 117 100 107 120 111 97 81 66 63 56
218 216 214 210 206 203 192 187 184 183 182 182 180 177 176 172 170 165 166 167 168 170 172 175 175 173 172 170 173 172 172 168 161 140 98 108 118 117 113 104 72 59 56
225 222 218 212 210 206 197 192 191 190 188 187 186 187 184 182 180 173 174 174 178 177 179 180 182 179 182 179 179 185 190 187 189 179 130 111 115 128 156 116 68 41 36
227 228 222 214 212 211 205 198 195 193 190 190 192 194 191 187 184 180 180 182 184 186 187 188 189 187 191 190 192 194 203 203 203 199 185 150 137 155 227 216 292 317 321
233 231 228 220 211 214 211 204 199 196 192 194 195 197 195 191 187 185 185 188 188 187 189 193 193 196 196 195 202 204 204 210 212 212 212 207 185 171 196 253 271 286 310
241 231 228 227 215 216 211 204 202 199 197 197 195 198 198 194 190 189 189 192 188 187 191 196 198 203 206 210 210 210 209 209 221 220 216 215 211 207 195 213 266 277 289
238 235 229 229 222 218 211 204 202 201 202 200 196 198 198 194 193 193 195 192 188 191 197 200 204 206 210 217 219 220 222 222 219 220 220 218 217 221 221 189 204 258 280
239 236 233 229 228 218 207 200 199 203 205 204 201 202 199 195 195 195 196 195 191 196 201 204 207 209 211 213 220 231 236 232 224 223 224 217 216 224 229 225 221 226 246
241 235 232 232 230 214 204 197 198 203 204 205 205 204 204 201 198 197 197 196 196 203 207 207 206 205 209 202 214 235 236 230 227 224 221 219 216 222 224 227 232 240 239
242 236 233 232 232 218 211 204 202 202 207 207 205 207 208 206 201 200 199 199 201 204 206 207 205 207 209 203 213 223 224 219 218 223 223 221 219 214 222 229 232 236 247
243 240 233 231 234 224 213 204 198 197 199 204 206 210 212 210 205 203 203 202 204 204 207 209 210 210 210 208 215 226 232 226 222 210 220 219 218 219 224 229 232 235 243
247 246 241 234 230 223 212 202 199 204 207 209 205 207 210 212 209 207 206 205 204 207 209 210 212 214 210 211 214 232 255 266 235 222 213 219 226 233 234 230 232 236 241
255 246 239 235 228 220 213 205 205 211 212 208 204 205 208 210 209 208 206 205 206 209 211 210 211 212 213 215 216 217 234 246 247 240 239 231 236 236 239 239 237 237 239
260 251 241 234 229 218 210 207 209 211 208 205 205 203 205 206 208 209 207 207 208 209 211 212 211 213 214 217 219 218 221 225 222 231 245 246 245 242 249 246 237 236 240
Height
1510 1512 1513 1516 1517 1519 1520 1521 1522 1523 1524 1525 1525 1526 1526 1527 1527 1528 1528 1529 1529 1529 1530 1530 1530 1530 1530 1530 1530 1530 1529 1529 1530 1530 1530 1529 1529 1529 1529 1529 1530 1530 1529
1509 1511 1513 1515 1517 1519 1520 1521 1522 1523 1524 1525 1526 1526 1527 1528 1528 1529 1529 1529 1530 1530 1530 1530 1531 1531 1531 1531 1531 1531 1530 1530 1530 1531 1531 1531 1531 1531 1530 1530 1530 1531 1530
1509 1511 1513 1515 1517 1519 1520 1521 1522 1523 1524 1525 1526 1527 1528 1528 1529 1529 1530 1530 1530 1531 1531 1531 1531 1531 1531 1531 1531 1531 1531 1531 1531 1532 1532 1532 1532 1532 1531 1531 1531 1531 1531
1509 1511 1513 1515 1517 1518 1520 1521 1522 1523 1524 1525 1526 1527 1528 1529 1529 1529 1530 1530 1531 1531 1531 1531 1532 1532 1532 1532 1532 1532 1532 1532 1532 1532 1533 1534 1533 1533 1533 1532 1532 1532 1532
1509 1511 1512 1514 1516 1518 1519 1521 1522 1523 1524 1525 1526 1527 1528 1529 1529 1530 1530 1531 1531 1531 1532 1532 1532 1532 1532 1533 1533 1533 1533 1533 1533 1533 1534 1534 1534 1533 1533 1533 1533 1533 1532
1509 1510 1512 1513 1516 1517 1519 1520 1522 1523 1524 1525 1526 1527 1528 1528 1529 1530 1530 1531 1531 1531 1532 1532 1532 1532 1533 1533 1533 1533 1533 1534 1534 1534 1534 1535 1535 1534 1534 1534 1533 1533 1533
1508 1510 1511 1513 1515 1517 1518 1519 1521 1522 1523 1524 1525 1526 1527 1528 1529 1529 1530 1531 1531 1531 1532 1532 1532 1533 1533 1533 1534 1534 1534 1534 1535 1535 1535 1535 1535 1534 1534 1534 1534 1533 1533
1508 1509 1510 1512 1514 1516 1517 1519 1520 1521 1522 1524 1524 1525 1526 1527 1528 1529 1530 1530 1531 1531 1532 1532 1532 1533 1533 1534 1534 1534 1534 1534 1535 1535 1535 1535 1535 1535 1534 1534 1534 1534 1533
1507 1508 1510 1511 1513 1514 1516 1518 1519 1520 1522 1523 1524 1525 1525 1526 1527 1528 1529 1530 1530 1531 1532 1532 1532 1533 1533 1534 1534 1534 1534 1535 1536 1536 1536 1536 1535 1535 1534 1534 1534 1534 1533
1506 1507 1508 1510 1511 1513 1515 1516 1518 1519 1520 1521 1523 1524 1524 1525 1526 1527 1528 1529 1530 1531 1531 1532 1532 1533 1533 1534 1534 1534 1535 1535 1536 1536 1536 1535 1535 1535 1534 1534 1534 1533 1533
1504 1506 1507 1508 1510 1511 1513 1514 1516 1518 1519 1520 1521 1522 1523 1524 1525 1526 1527 1528 1529 1530 1531 1531 1532 1532 1533 1533 1534 1534 1534 1535 1536 1535 1535 1535 1535 1535 1534 1534 1533 1533 1532
1501 1503 1504 1506 1507 1509 1511 1512 1514 1515 1517 1518 1519 1520 1522 1523 1524 1525 1526 1527 1528 1529 1530 1531 1531 1532 1532 1533 1533 1534 1534 1535 1535 1535 1535 1534 1535 1534 1534 1533 1533 1532 1532
1499 1500 1501 1503 1504 1506 1508 1510 1511 1513 1514 1516 1517 1518 1519 1521 1522 1523 1524 1525 1526 1528 1529 1529 1530 1531 1532 1532 1532 1533 1533 1534 1534 1534 1534 1534 1534 1534 1533 1533 1532 1532 1532
1496 1497 1498 1500 1501 1503 1505 1507 1508 1510 1512 1513 1514 1516 1517 1518 1520 1521 1522 1524 1525 1526 1527 1528 1529 1530 1530 1531 1531 1532 1532 1532 1533 1533 1532 1532 1533 1533 1532 1532 1532 1531 1530
1493 1494 1495 1496 1498 1499 1501 1503 1505 1507 1509 1510 1512 1513 1514 1516 1517 1518 1520 1522 1523 1524 1525 1526 1527 1528 1529 1529 1530 1530 1531 1531 1531 1531 1531 1531 1531 1531 1531 1531 1531 1530 1529
1489 1490 1491 1493 1494 1496 1498 1500 1502 1503 1505 1507 1508 1510 1512 1513 1514 1515 1517 1519 1521 1522 1523 1524 1525 1526 1527 1527 1528 1528 1529 1529 1529 1529 1530 1529 1529 1529 1529 1529 1529 1528 1528
1485 1486 1487 1489 1490 1492 1494 1496 1498 1500 1501 1503 1505 1507 1508 1510 1511 1513 1514 1516 1518 1519 1521 1522 1523 1524 1524 1525 1526 1526 1526 1526 1527 1527 1527 1527 1527 1527 1527 1527 1527 1526 1526
1481 1482 1483 1484 1486 1487 1489 1492 1494 1496 1498 1500 1501 1503 1505 1507 1508 1510 1511 1513 1515 1516 1518 1519 1520 1521 1521 1522 1523 1523 1523 1524 1524 1525 1525 1525 1525 1525 1525 1525 1524 1524 1523
1477 1478 1479 1480 1481 1483 1485 1487 1490 1492 1494 1496 1497 1499 1501 1503 1504 1506 1508 1510 1511 1513 1514 1516 1517 1518 1518 1519 1520 1520 1520 1521 1521 1521 1522 1522 1522 1522 1522 1522 1521 1521 1521
1472 1473 1474 1475 1476 1478 1480 1482 1485 1487 1489 1491 1493 1495 1497 1499 1500 1502 1504 1506 1507 1509 1510 1512 1513 1514 1515 1516 1516 1517 1517 1517 1517 1518 1518 1519 1519 1519 1519 1519 1518 1518 1517
1467 1468 1469 1470 1471 1473 1474 1476 1479 1482 1484 1486 1488 1490 1492 1494 1496 1498 1500 1502 1503 1505 1506 1508 1509 1510 1511 1512 1513 1513 1513 1514 1514 1514 1515 1515 1515 1516 1516 1515 1515 1514 1514
1462 1462 1463 1465 1466 1468 1469 1471 1474 1477 1479 1481 1484 1486 1488 1490 1492 1494 1496 1497 1499 1501 1502 1504 1505 1506 1507 1509 1510 1510 1511 1511 1509 1510 1510 1511 1511 1511 1512 1512 1511 1510 1510
1457 1457 1458 1460 1461 1463 1464 1467 1470 1472 1474 1476 1478 1480 1483 1485 1487 1489 1491 1493 1495 1496 1498 1499 1501 1502 1503 1505 1506 1507 1508 1507 1506 1506 1506 1507 1507 1507 1507 1507 1507 1506 1506
1452 1452 1453 1454 1456 1457 1459 1461 1463 1465 1467 1470 1473 1475 1478 1480 1482 1484 1486 1488 1490 1492 1493 1495 1496 1498 1499 1500 1501 1502 1504 1503 1504 1502 1502 1502 1503 1503 1503 1503 1502 1501 1501
1448 1448 1448 1450 1451 1452 1454 1455 1458 1461 1463 1466 1468 1471 1473 1475 1477 1479 1481 1483 1485 1487 1489 1490 1492 1493 1494 1496 1497 1498 1498 1499 1499 1499 1498 1498 1499 1499 1498 1498 1497 1496 1496
1443 1443 1443 1445 1446 1447 1449 1451 1453 1456 1458 1460 1463 1465 1468 1470 1472 1474 1476 1478 1480 1482 1484 1485 1487 1488 1489 1491 1492 1493 1494 1494 1495 1495 1494 1493 1493 1494 1494 1493 1492 1492 1491